Regional Weather Roundup
Issued by NWS

Home | Current Version | Previous Version | Text Only | Print | Product List | Glossary Off
Versions: 1 2 3 4 5 6 7 8 9 10 11 12 13 14 15 16 17 18 19 20 21 22 23 24 25 26 27 28 29 30 31 32 33 34 35 36 37 38 39 40 41 42 43 44 45 46 47 48 49 50

000
ASUS43 KFSD 192102
RWRSD

WEATHER ROUNDUP FOR SOUTH DAKOTA
NATIONAL WEATHER SERVICE SIOUX FALLS SD
400 PM CDT SAT AUG 19 2017

NOTE: "FAIR" INDICATES FEW OR NO CLOUDS BELOW 12,000 FEET WITH NO
SIGNIFICANT WEATHER AND/OR OBSTRUCTIONS TO VISIBILITY.


SDZ001>005-009-010-012>017-192200-
NORTHWEST AND NORTH CENTRAL SOUTH DAKOTA

CITY           SKY/WX    TMP DP  RH WIND       PRES   REMARKS
BUFFALO          N/A     87  37  17 NW20      29.82S
FAITH            N/A     96  37  12 SW9       29.79F
MOBRIDGE       CLOUDY    87  67  51 S12       29.74F
$$

SDZ012>016-024>037-041>051-057-063-072>074-192200-
SOUTHWEST AND SOUTH CENTRAL SOUTH DAKOTA

CITY           SKY/WX    TMP DP  RH WIND       PRES   REMARKS
RAPID CTY ARPT SUNNY     94  43  17 CALM      29.85F
PIERRE         SUNNY     92  59  33 S14       29.75F
CUSTER         CLOUDY    84  44  24 E18       30.04S
ELLSWORTH AFB  SUNNY     92  46  19 N5        29.85F
PHILIP         SUNNY     99  37  11 NW6       29.76F
PINE RIDGE     SUNNY     96  36  12 N8        29.86F
SPEARFISH      FAIR      90  37  15 N10G17    29.92F
WINNER         FAIR      91  64  40 SE16G22   29.79F
$$

SDZ004>011-016>023-039-040-192200-
NORTHEAST SOUTH DAKOTA

CITY           SKY/WX    TMP DP  RH WIND       PRES   REMARKS
ABERDEEN       SUNNY     83  60  45 S17G25    29.80F
WATERTOWN      SUNNY     78  60  53 S16       29.85F
BROOKINGS      SUNNY     78  63  59 SE13      29.88F
SISSETON         N/A     81  62  52 S13       29.81F
$$

SDZ017-020-022-023-036>040-048>070-192200-
SOUTHEAST SOUTH DAKOTA

CITY           SKY/WX    TMP DP  RH WIND       PRES   REMARKS
SIOUX FALLS    SUNNY     81  65  58 SE12      29.89F
HURON          SUNNY     82  62  50 S15G24    29.81F
CHAMBERLAIN    SUNNY     89  67  49 SE13      29.80F
MITCHELL       SUNNY     83  61  47 SE16      29.82F
YANKTON        SUNNY     83  64  52 SE15      29.86F
$$

ABBREVIATIONS USED IN REMARKS
   TC - TEMPERATURE IN CELSIUS
  WCI - WIND CHILL INDEX
   HX - HEAT INDEX
  VSB - VISIBILITY





USA.gov is the U.S. government's official web portal to all federal, state and local government web resources and services.